SNAP-3 JIMI

Last updated on Tue Jul 01 2025 00:03:44 GMT+0000 (Coordinated Universal Time)

1 40975U 15058M 25181.57646499 .00004279 00000+0 31688-3 0 9991 2 40975 64.7657 247.8916 0139459 191.3721 168.4236 14.97041810 61499
UTC large
Height (km)
Speed (km/s)
/
Latitude / Longitude
Inclination (degrees)
Orbital Period (minutes)
Azimuth
Elevation
Range (km)
Doppler Factor

Next 0 passes for location: London (51.5072 / 0.1276)

Sorry there are no passes over London.